Regional Weather Roundup
Issued by NWS Binghamton, NY

Current Version | Previous Version | Text Only | Print | Product List | Glossary On
Versions: 1 2 3 4 5 6 7 8 9 10 11 12 13 14 15 16 17 18 19 20 21 22 23 24 25 26 27 28 29 30 31 32 33 34 35 36 37 38 39 40 41 42 43 44 45 46 47 48 49 50
000
ASUS41 KBGM 011710
RWRBGM

REGIONAL WEATHER ROUNDUP
NATIONAL WEATHER SERVICE BINGHAMTON NY
1200 PM EST MON MAR 01 2021

Note: "fair" indicates few or no clouds below 12,000 feet with no
significant weather and/or obstructions to visibility.

* = Station(s) that does not report precipitation, such as rain,
snow, etc, also no thunder or fog.

NYZ009-015>018-022>025-036-037-044>046-055>057-062-011800
...Central New York...

CITY           SKY/WX    TMP DP  RH WIND       PRES   REMARKS
Binghamton     CLOUDY    33  27  78 NW15G25   29.68S WCI  23
Cortland       CLOUDY    34  27  75 NW13G22   29.73R WCI  25
Dansville      CLOUDY    35  22  58 NW21      29.81S WCI  24
Elmira         CLOUDY    38  23  55 W17G24    29.75R WCI  28
Endicott       CLOUDY    37  30  75 N10G23    29.71R WCI  30
Ithaca         CLOUDY    33  24  69 NW25G31   29.75R WCI  20
Hamilton       CLOUDY    34  27  75 NW13G20   29.70S WCI  25
Monticello     CLOUDY    38  33  82 W18G29    29.61F WCI  28
Norwich        CLOUDY    36  28  75 NW14      29.70S WCI  27
Oneonta        CLOUDY    32  30  93 NW9       29.64R WCI  24
Penn Yan       CLOUDY    35  21  56 W16G29    29.77S WCI  25
Rome           CLOUDY    35  25  66 W21       29.72R WCI  24
Seneca Falls   CLOUDY    34  21  60 W15G23    29.80R WCI  24
Sidney         CLOUDY    37  30  75 W14G20    29.69S WCI  29
Skaneateles    CLOUDY    34  23  64 W16G26    29.75R WCI  23
Syracuse       CLOUDY    35  25  66 NW26G35   29.75S WCI  22
$$

PAZ038>040-043-044-047-048-072-011800
...Northeast Pennsylvania...

CITY           SKY/WX    TMP DP  RH WIND       PRES   REMARKS
Hazleton       CLOUDY    37  36  93 W8G18     29.71R WCI  31
Scranton       CLOUDY    41  34  76 NW10G22   29.70S
Towanda        PTSUNNY   43  27  52 W12G18    29.75S
$$
&&
KEY
WCI = Wind Chill Index
VSB = Visibility
HX  = Heat Index
$$



USA.gov is the U.S. government's official web portal to all federal, state and local government web resources and services.